RH
23 22 24 26 33 42 50 59 89 100 100 100 98 100 92 82 74 70 60 62 77 69 72 75 80 66 76 95 94 74 91 86 83 78 64 53 42 60 76 80 55 44 43 34 38 74 87 90 68 47 44 55 58 64
23 23 29 60 50 68 89 100 100 100 100 100 99 100 95 87 79 79 79 61 73 98 93 94 80 76 72 84 88 74 84 98 89 81 66 62 51 44 53 83 88 61 44 39 42 26 44 69 89 93 73 50 46 47
24 28 62 90 82 91 100 100 100 100 100 100 98 100 100 100 95 83 94 70 72 93 93 94 94 95 90 95 85 85 82 96 98 99 75 64 60 46 46 45 80 89 75 46 36 39 33 30 52 59 84 94 72 53
40 51 92 100 100 100 100 99 100 100 100 100 100 100 100 100 100 98 85 95 77 78 84 72 100 100 100 96 90 84 83 99 92 99 90 73 71 58 52 52 48 76 81 79 47 33 29 33 25 26 30 61 84 82
98 99 100 94 100 99 98 100 100 100 100 100 100 100 100 100 100 100 93 98 100 87 100 85 100 100 100 100 98 99 85 100 100 100 100 89 71 74 64 56 52 58 80 76 89 55 36 19 26 23 18 24 27 64
100 100 100 100 100 100 100 100 100 100 100 100 100 100 100 100 100 100 100 100 100 99 99 95 100 100 100 100 100 91 100 100 100 100 97 96 95 81 73 62 60 52 62 77 68 87 74 38 19 20 22 18 17 24
100 100 100 100 100 100 100 100 100 100 100 100 100 100 100 100 100 100 100 100 100 100 93 88 100 100 100 100 100 92 98 100 100 100 98 95 84 86 98 66 77 53 62 55 46 60 82 63 44 23 19 21 19 15
100 100 100 100 100 100 100 100 100 100 100 100 100 100 100 100 100 100 100 100 100 99 91 100 100 100 100 100 99 96 100 100 100 97 100 100 87 87 95 99 68 61 58 56 58 42 60 79 53 84 52 23 18 20
100 100 100 100 100 100 100 100 100 100 100 100 100 100 100 100 100 100 100 100 100 90 88 100 100 100 100 100 93 100 100 95 99 100 100 100 100 100 99 100 87 72 52 40 68 46 40 36 51 38 48 99 58 26
100 100 100 100 100 100 100 100 100 100 100 100 100 100 100 100 100 100 100 100 100 99 86 100 100 100 100 100 100 100 100 100 100 100 100 100 100 98 83 87 89 88 80 56 25 35 35 44 29 27 28 29 41 56
89 100 100 100 100 100 100 100 100 100 100 100 100 100 100 100 100 100 100 100 100 94 100 100 100 100 100 100 100 100 100 100 100 100 100 100 100 100 92 95 82 83 70 74 47 26 36 32 21 21 18 23 25 29
54 68 84 94 97 100 100 100 100 100 100 100 100 100 100 100 100 100 100 100 100 100 100 100 100 100 100 100 100 100 100 100 100 100 100 100 100 100 100 99 95 98 97 75 87 60 32 36 33 29 16 16 19 21
39 44 53 57 74 76 91 100 100 100 100 100 100 100 100 100 100 100 69 65 100 100 100 100 100 100 100 100 100 100 100 100 100 100 100 100 100 100 100 100 91 100 100 100 98 92 42 54 63 44 24 18 15 15
66 79 65 51 56 69 76 92 98 100 100 100 100 97 84 67 67 75 100 100 100 94 84 80 100 100 100 100 100 100 100 100 90 100 100 100 100 99 94 100 100 100 100 100 100 100 57 78 94 45 35 25 21 15
47 43 43 56 57 48 49 56 73 87 93 100 100 92 79 86 87 100 100 100 100 100 100 96 96 96 92 81 78 74 94 87 100 100 100 89 86 100 98 100 80 78 80 100 100 99 93 59 71 53 31 26 26 17
33 28 33 39 45 52 60 55 59 69 85 84 84 76 66 67 62 73 88 98 100 94 86 89 85 78 71 62 51 60 80 98 100 100 82 87 80 70 55 64 59 56 56 55 56 56 66 62 56 56 45 24 24 21
14 24 28 25 28 34 31 29 42 48 46 49 42 41 37 41 57 71 84 96 100 100 89 81 58 62 60 47 34 56 96 100 100 84 99 73 41 53 78 85 99 60 30 27 37 46 88 66 45 42 33 24 22 19
9 12 12 12 14 15 17 22 22 22 25 26 20 23 24 33 31 25 41 55 58 71 72 61 28 21 35 25 29 74 57 66 50 82 100 85 99 100 100 89 99 86 41 22 33 53 55 47 42 34 19 17 19 18
9 9 9 9 9 9 10 10 12 13 13 14 14 15 17 20 16 15 19 27 29 31 20 16 14 14 19 26 24 22 25 26 26 74 100 53 48 94 100 99 100 85 52 34 55 75 28 24 23 22 19 18 15 14
6 6 7 8 8 7 7 7 9 9 9 10 11 12 12 11 11 11 12 12 13 12 11 9 10 13 15 18 19 21 18 20 37 54 68 37 28 62 92 94 85 52 31 34 34 41 24 19 17 15 15 14 13 14
4 4 4 5 6 5 6 6 7 6 6 8 9 8 8 8 9 9 9 10 8 7 7 8 11 13 14 14 15 20 20 30 32 21 19 23 27 51 45 46 48 35 29 20 23 24 17 15 14 13 12 12 12 12
4 4 4 3 4 4 4 4 4 5 6 6 7 6 6 6 6 6 7 5 6 6 8 10 11 11 10 10 11 14 16 19 18 16 14 14 19 27 28 26 24 22 24 17 18 19 17 13 14 12 12 12 10 8
4 3 3 3 3 3 4 4 4 4 4 4 4 4 4 4 4 4 4 4 5 7 6 6 6 6 6 6 8 10 10 9 10 12 12 12 15 15 15 17 17 17 15 15 15 15 13 13 13 11 12 9 7 7
4 3 3 3 3 3 4 4 4 4 4 4 4 4 4 4 4 4 3 4 5 6 5 5 5 4 4 5 6 7 8 8 8 9 10 10 11 11 12 14 13 13 13 13 13 12 12 10 11 11 9 7 7 6
4 3 3 4 4 5 5 6 6 5 5 4 3 4 5 4 4 3 4 6 8 5 4 3 3 3 4 4 4 4 5 5 6 7 8 9 11 11 12 12 10 11 12 13 10 10 10 10 11 8 7 6 5 4
3 3 4 5 6 6 7 7 7 6 5 5 6 5 5 4 3 5 10 9 5 4 3 3 3 3 3 3 3 3 4 5 6 6 8 9 9 10 10 9 9 10 10 9 9 9 10 9 8 7 6 5 5 5
4 4 7 8 9 8 7 7 7 6 7 7 7 5 5 4 6 10 6 3 3 3 3 3 3 3 3 3 3 4 4 4 5 5 6 7 9 8 9 10 10 9 8 9 9 9 8 8 7 6 4 5 5 4
8 10 10 8 6 6 6 6 7 8 8 6 4 4 4 5 6 4 4 4 4 4 4 4 4 4 4 3 4 4 4 4 5 5 6 7 8 8 9 9 9 8 8 9 9 7 7 6 5 4 5 5 4 3
9 8 6 6 6 6 7 8 8 7 5 3 4 5 5 5 6 5 5 4 4 5 5 5 5 4 4 4 4 4 4 4 4 5 6 6 7 7 8 8 8 9 10 8 6 6 6 5 4 5 5 3 3 3
6 4 5 6 7 8 7 5 6 4 4 5 6 6 6 5 5 5 6 7 7 7 6 5 5 4 4 4 4 4 5 5 6 6 6 7 7 7 7 8 9 8 7 7 6 6 5 5 5 5 3 3 3 3
4 5 6 6 6 5 4 5 5 5 6 6 6 6 6 7 7 8 7 7 7 7 6 6 5 5 5 5 5 5 5 5 6 6 7 7 7 8 8 7 6 7 7 6 5 5 5 5 4 3 3 3 3 3
6 6 5 5 5 5 6 6 6 6 6 7 7 7 7 8 8 8 8 8 7 6 6 5 5 5 5 5 5 5 6 6 6 7 8 8 7 6 6 6 6 6 5 5 5 5 5 3 3 3 3 3 3 2
5 6 5 5 6 6 6 6 7 7 7 8 8 8 9 8 8 8 7 7 7 6 6 5 5 5 5 5 6 7 8 8 8 7 6 6 6 7 7 6 5 5 4 5 5 4 3 3 3 3 3 3 3 2
Wind_Speed
64 66 64 60 59 56 53 55 55 54 51 53 54 53 55 56 54 57 54 51 50 55 58 64 67 71 73 75 78 82 81 81 83 85 89 89 88 84 85 71 52 45 41 37 30 25 24 22 23 25 22 20 18 20
67 67 66 63 62 56 55 51 51 46 52 56 57 53 53 58 56 53 51 54 52 49 52 59 65 66 70 74 76 80 79 77 80 81 87 87 89 84 80 77 70 51 42 36 34 31 26 24 24 21 21 22 21 21
75 67 63 62 63 60 56 52 49 46 52 59 58 51 48 49 51 53 52 52 50 51 54 60 64 65 69 72 74 76 80 76 77 79 86 89 87 90 83 69 76 73 49 38 35 31 27 24 25 26 23 20 21 22
74 66 59 60 60 61 57 57 51 47 57 57 56 55 55 46 49 54 57 52 53 54 53 59 60 64 68 71 73 74 78 76 76 76 80 87 89 89 85 76 67 79 69 58 38 33 29 27 25 26 27 27 24 24
71 64 64 64 60 63 59 57 54 61 65 56 52 55 50 50 50 58 61 56 45 53 52 62 63 64 68 71 74 74 78 76 78 79 81 87 91 88 87 84 78 78 80 74 67 45 34 32 29 29 27 27 30 29
73 69 72 71 67 65 63 65 64 65 63 64 64 60 57 61 64 59 58 54 49 57 57 61 69 71 73 74 74 76 77 75 77 82 85 86 87 89 87 77 85 79 83 82 68 65 50 39 33 30 31 28 27 29
79 76 82 81 81 75 72 69 72 72 76 74 75 76 71 73 70 69 69 62 51 57 63 67 72 75 75 74 76 78 80 80 80 83 87 84 88 89 83 86 87 81 78 79 69 72 60 40 42 31 31 32 33 30
85 83 81 83 87 83 79 80 82 83 82 83 83 86 82 74 76 81 67 56 64 71 67 67 75 76 79 81 80 81 84 85 84 85 87 85 90 92 87 83 88 86 80 82 81 71 68 57 41 36 36 30 29 33
95 94 91 88 89 90 88 86 86 87 86 87 85 85 79 80 85 69 75 82 77 79 72 69 79 81 84 82 88 87 88 88 84 85 87 86 89 95 91 86 86 88 85 83 83 75 68 59 53 39 32 32 35 32
102 103 99 101 102 100 97 94 94 96 96 93 92 89 91 84 80 80 80 86 84 81 81 76 83 85 85 90 94 93 92 91 89 88 88 86 86 97 93 92 89 85 87 90 75 74 71 71 54 39 32 33 31 34
114 110 108 106 109 110 108 106 104 103 103 101 101 101 99 97 94 96 93 92 92 94 88 82 88 93 94 96 95 95 95 95 91 87 88 89 89 98 96 92 89 86 87 89 86 79 75 71 61 50 35 36 37 39
124 121 120 115 114 115 116 116 115 113 111 112 110 109 110 112 113 108 99 96 94 95 94 97 101 101 99 100 100 97 99 99 94 92 92 91 92 95 95 92 89 86 91 87 90 88 81 72 70 73 58 39 40 43
127 128 129 126 123 121 121 122 123 122 121 123 123 123 122 120 119 115 112 105 102 104 105 107 108 109 109 108 108 105 105 102 98 94 93 98 99 98 94 93 92 87 88 87 89 91 88 85 80 79 73 60 58 58
133 135 131 130 132 131 127 126 132 130 131 132 133 136 133 127 125 117 112 115 114 115 117 115 114 112 111 113 113 113 111 106 101 98 94 102 101 101 95 91 93 87 86 87 90 91 87 86 87 80 80 78 70 66
130 130 131 130 133 135 133 135 136 137 138 140 143 146 137 126 124 122 122 121 122 124 127 125 123 122 121 119 115 111 112 105 103 106 103 99 99 101 96 94 92 84 86 85 83 82 88 89 85 84 84 82 77 75
132 129 129 134 138 140 140 138 140 141 144 146 151 152 139 136 133 131 130 131 131 132 132 130 130 129 124 118 114 110 105 104 110 110 102 100 100 98 91 90 93 93 91 83 83 81 85 87 87 85 88 83 79 81
133 132 135 133 137 137 139 138 141 146 148 149 147 147 140 134 133 135 136 133 134 137 134 132 125 124 124 120 106 101 107 109 110 106 101 102 99 99 100 95 97 97 94 84 84 81 84 89 89 87 89 88 85 82
134 137 132 139 136 134 134 135 140 143 144 144 138 133 136 133 124 118 124 131 134 133 131 124 120 119 113 97 97 105 102 104 103 99 100 101 96 101 102 101 98 100 99 90 86 88 86 89 90 92 87 86 86 84
128 127 129 129 127 132 133 132 135 135 134 134 132 130 129 126 126 122 118 118 118 121 120 118 119 109 102 101 105 103 101 102 102 96 96 98 97 99 100 103 100 104 101 99 93 98 89 91 90 90 88 89 87 84
119 118 120 123 120 121 125 123 125 129 125 128 125 125 129 130 126 124 120 115 114 118 121 119 109 101 100 101 101 106 104 103 103 99 96 98 99 97 100 102 103 105 101 101 95 97 92 96 90 88 85 84 86 84
113 114 114 115 119 115 110 107 113 116 115 111 116 121 122 120 118 116 111 108 105 103 101 101 100 97 103 99 97 100 102 103 102 98 89 93 97 100 100 101 103 103 106 98 92 96 94 95 90 89 85 84 83 83
102 107 108 108 106 108 104 98 98 105 108 103 104 109 109 103 101 101 101 100 97 91 94 98 95 97 100 100 95 95 98 97 97 100 94 93 94 97 99 101 103 99 103 98 94 94 96 90 87 86 84 83 82 79
99 98 98 99 99 92 83 90 91 92 94 93 96 96 95 95 93 94 94 88 86 92 97 94 95 97 94 94 95 91 93 93 95 96 95 93 93 95 96 98 98 97 97 94 91 92 90 87 88 86 84 83 77 72
92 93 91 88 81 75 74 79 82 87 88 84 85 87 83 83 84 83 78 76 80 87 86 87 91 89 88 85 83 86 90 94 92 92 91 93 92 93 93 94 94 92 89 87 90 88 86 84 81 81 81 77 74 72
86 79 75 67 64 66 69 73 77 82 81 81 79 75 73 74 74 73 66 72 80 80 80 82 80 77 74 75 80 82 85 87 89 88 89 86 84 88 88 92 89 81 83 86 83 81 79 77 78 80 76 72 70 65
71 61 57 57 63 67 70 73 74 74 72 68 66 67 68 66 62 56 68 76 71 74 74 72 70 70 72 74 74 75 77 79 80 81 81 80 83 84 87 86 83 82 80 79 76 74 74 75 76 73 71 68 63 62
49 47 55 63 66 67 69 68 68 65 60 61 64 62 59 56 53 64 69 69 67 66 65 66 66 65 65 66 65 66 68 70 70 74 77 73 77 79 78 81 81 79 74 73 71 72 74 73 70 68 63 60 58 54
49 57 61 66 64 64 61 59 59 58 60 60 58 56 52 53 60 64 61 60 60 60 60 60 61 59 59 59 60 60 61 61 61 63 65 67 69 70 72 73 73 70 69 69 71 71 68 67 65 61 57 56 51 48
54 59 57 53 54 51 51 53 54 57 56 50 47 49 50 50 55 56 57 56 55 53 53 54 53 53 53 53 52 53 53 54 56 58 59 59 59 61 63 64 64 64 67 70 68 65 63 62 59 56 52 49 47 44
49 48 42 41 41 45 51 48 49 49 45 42 42 44 47 52 52 49 48 47 48 48 48 49 49 48 46 46 46 46 46 46 47 49 50 52 54 56 56 57 60 63 64 64 61 60 59 57 54 50 46 44 42 39
37 34 36 40 43 44 42 42 45 41 40 42 42 44 44 42 41 41 43 41 40 41 42 42 43 43 43 43 42 41 41 42 43 44 47 49 50 50 54 57 58 59 58 57 57 55 53 50 46 43 41 38 35 31
33 36 40 42 40 37 37 38 38 37 37 38 38 37 36 37 37 35 36 36 37 38 39 40 40 40 40 39 38 38 39 38 39 42 45 47 49 52 53 54 54 53 53 50 49 48 45 42 39 37 34 30 28 27
37 38 38 36 35 35 35 32 30 31 32 32 32 31 32 33 32 33 35 36 37 37 37 37 36 35 35 35 34 34 34 37 41 43 44 47 49 48 49 50 50 49 46 44 44 41 37 34 32 29 26 25 25 23
Wind_Direction
284 286 292 296 299 303 308 313 317 317 316 320 325 327 331 335 339 341 347 351 352 356 356 356 358 356 359 360 1 1 4 6 8 7 8 8 9 13 17 22 14 14 15 13 6 347 343 350 348 352 350 349 337 304
279 283 287 293 295 299 305 309 310 310 312 318 320 322 326 329 332 334 339 342 348 351 349 349 352 353 352 354 357 356 359 2 2 2 2 4 4 7 11 17 21 12 8 4 3 5 347 334 330 332 332 335 336 337
276 279 285 289 292 295 299 304 302 302 305 312 315 317 319 324 325 328 329 335 342 344 344 343 344 347 346 350 352 353 353 357 357 358 358 357 1 359 0 6 9 17 12 2 355 350 354 340 319 313 314 312 314 317
275 279 280 286 288 290 292 298 295 292 301 305 307 311 316 314 317 320 325 324 332 336 338 339 338 339 340 343 347 349 350 350 351 353 353 352 354 355 356 356 2 3 12 12 355 345 337 333 333 320 312 300 301 304
271 272 278 279 281 285 291 295 289 292 297 299 298 304 305 305 307 312 319 319 322 331 329 333 332 333 334 337 340 344 345 345 347 348 348 349 349 349 349 349 354 354 355 4 10 354 339 328 322 319 321 310 300 291
268 272 274 276 278 280 282 283 285 287 290 290 294 297 299 301 304 306 308 313 311 320 324 326 325 327 329 329 332 335 340 342 339 342 344 344 343 343 344 344 346 350 351 350 359 6 350 342 323 316 311 310 309 298
265 267 271 274 276 276 278 278 279 280 283 284 288 292 292 295 299 302 306 308 303 315 321 324 320 321 323 324 327 331 331 335 336 337 337 340 339 337 339 340 340 344 345 346 345 351 3 342 337 325 315 308 303 301
264 263 266 270 273 274 274 276 278 280 281 285 289 293 297 297 299 301 298 295 294 309 318 321 315 314 317 318 322 326 327 327 331 332 332 335 335 331 332 335 336 337 341 341 339 344 350 1 342 344 334 318 303 299
263 263 264 262 265 269 271 273 273 275 279 281 283 286 286 285 290 288 287 295 301 308 312 314 309 311 312 313 317 319 321 322 326 328 327 330 330 325 327 330 332 332 333 334 336 340 340 341 352 332 323 340 318 302
260 262 266 266 265 267 270 270 271 273 275 277 280 282 285 288 286 287 281 290 297 302 308 308 306 306 306 306 311 314 316 318 321 324 323 325 323 318 325 325 327 328 327 325 332 329 335 336 343 342 320 322 323 316
258 259 260 263 267 268 268 270 271 273 275 278 279 281 282 281 280 282 285 290 298 304 304 302 297 298 302 306 307 309 310 312 316 319 318 319 316 312 323 322 322 323 323 323 325 326 334 332 332 338 329 325 321 319
259 259 259 261 263 265 268 267 268 270 273 275 276 277 278 278 278 279 286 291 295 295 294 291 294 296 297 300 302 304 305 308 311 314 315 313 306 313 313 317 316 318 319 320 321 322 321 322 322 326 333 328 324 328
259 260 260 259 260 263 265 268 269 269 271 272 273 273 274 277 280 286 288 289 289 288 291 291 292 295 295 297 298 299 302 303 306 311 312 306 306 307 309 311 314 315 314 315 315 315 317 320 321 323 325 328 328 327
260 262 261 260 260 261 262 265 267 269 270 271 273 274 273 277 282 285 285 286 287 288 287 287 289 290 292 294 295 298 299 303 307 307 304 301 303 304 308 309 309 310 308 310 311 312 314 315 315 318 319 321 324 323
257 258 256 260 260 260 262 262 264 267 269 270 270 271 271 275 278 280 282 283 284 284 285 285 287 289 289 291 291 295 298 302 304 299 298 299 300 301 304 304 305 306 305 307 306 308 309 310 311 315 316 318 320 321
254 255 257 257 259 259 259 260 263 264 264 266 267 269 271 272 274 275 277 278 279 281 282 284 286 286 289 290 291 296 299 300 296 295 296 298 297 295 298 302 303 304 303 303 303 304 307 310 309 313 312 314 315 316
257 259 257 258 257 259 258 256 259 260 262 264 268 271 270 270 272 274 273 275 278 280 282 283 285 285 284 288 294 295 295 291 289 291 293 294 294 296 299 300 299 300 300 300 302 303 306 305 307 310 311 313 313 311
257 254 255 257 256 256 256 258 259 260 263 265 266 269 271 272 271 272 274 274 275 276 278 279 280 282 284 290 292 287 285 285 286 288 289 291 288 289 293 293 296 295 297 299 301 302 303 304 306 306 309 309 307 307
254 255 256 253 256 256 255 256 257 259 261 263 266 267 268 270 272 272 270 270 273 275 276 277 277 281 286 285 283 280 279 281 282 282 283 285 284 285 287 287 290 290 292 296 300 299 301 302 302 302 305 306 305 304
252 255 253 253 255 255 254 255 258 260 262 262 263 266 268 269 270 271 271 271 271 273 274 277 280 280 277 274 274 276 277 277 278 278 280 282 283 282 283 285 285 287 291 293 295 296 301 301 301 302 306 303 302 302
251 252 254 254 254 254 255 259 258 259 260 261 264 265 267 268 268 268 270 271 272 270 272 273 273 274 272 271 269 269 271 272 274 275 274 275 276 277 279 282 282 286 288 291 295 295 298 299 302 302 304 303 303 300
251 251 252 254 255 256 256 258 259 259 259 261 263 263 264 266 267 269 268 269 269 272 271 268 264 263 266 266 263 263 264 266 270 272 272 272 271 273 276 279 281 284 286 291 292 294 295 300 302 302 303 302 301 302
251 250 251 254 255 257 257 259 258 259 259 259 261 264 265 266 266 266 267 269 269 265 264 264 262 261 264 264 263 262 263 265 266 267 269 270 270 272 275 277 280 282 285 290 293 293 297 299 300 302 301 300 303 303
250 250 251 254 257 258 257 259 258 257 258 259 260 261 262 262 263 264 265 268 264 262 263 262 262 265 267 266 265 265 264 265 265 265 267 269 272 274 276 277 280 283 289 290 290 295 296 298 299 299 299 302 302 302
250 250 254 258 259 257 255 254 255 255 256 255 257 260 258 258 259 261 266 263 258 258 260 264 269 267 266 266 265 264 264 264 263 263 264 268 272 273 276 279 284 288 287 288 293 294 295 298 299 298 302 302 302 302
251 256 256 256 254 253 251 251 252 254 255 257 258 256 256 256 258 259 257 256 260 262 264 265 264 264 263 263 264 265 264 265 265 266 265 267 271 274 275 281 287 288 288 290 293 294 295 296 299 301 300 302 303 302
256 255 250 248 248 247 247 248 250 252 254 254 253 252 253 256 254 250 252 256 259 262 263 263 264 264 264 265 266 267 267 266 266 268 270 271 270 273 278 282 284 286 289 291 292 294 295 298 299 298 301 302 299 298
242 241 239 239 240 242 244 247 249 250 247 249 251 252 251 250 249 253 257 258 257 258 260 261 262 264 265 265 265 265 266 265 266 268 269 270 272 274 276 279 282 287 290 292 291 292 297 297 298 301 302 299 299 299
237 239 240 241 242 244 245 244 244 246 248 251 251 251 250 252 254 255 256 257 258 259 260 261 262 262 264 266 266 265 265 266 268 269 270 272 272 273 276 280 283 286 288 289 291 296 296 298 299 300 299 298 298 294
237 239 242 242 241 239 241 242 243 244 247 249 249 249 247 247 251 254 256 257 259 260 261 262 264 265 264 264 266 268 268 267 267 269 271 273 274 275 279 281 282 284 287 291 294 295 296 297 298 298 297 295 290 285
234 233 234 235 235 237 239 240 242 243 242 241 242 244 247 251 251 253 255 255 256 259 260 260 260 260 261 262 263 264 266 266 267 269 270 272 275 277 278 279 284 288 290 291 292 293 294 295 295 294 290 285 282 282
221 222 225 227 229 231 232 234 236 237 239 241 243 245 245 247 249 251 251 252 253 254 253 253 255 258 259 260 261 261 264 267 271 272 272 272 274 278 283 286 286 286 286 288 289 292 294 294 291 284 281 281 283 280
217 218 223 225 224 225 229 229 233 235 236 238 239 240 242 244 245 247 248 249 250 252 254 256 257 259 260 262 264 266 265 264 264 267 273 277 280 283 284 284 285 287 289 293 293 294 293 286 281 281 286 286 282 275